EW4498 Weather Reports


Display with metric or nautical units.
time (UTC)temp
F
wind
direction
speed
MPH
gust
MPH
rain 1hr
in
rain 24hr
in
rain mn
in
humidity
%
barometer
mb
20260504230057 47 337 2.0 4.0 0.00 0.02 0.00 81 1011.8
20260504224602 47 313 2.0 6.0 0.00 0.09 0.00 82 1011.7
20260504223112 45 294 0.0 3.0 0.00 0.09 0.00 81 1011.8
20260504221549 45 266 0.0 0.0 0.00 0.09 0.00 79 1011.6
20260504220048 45 267 0.0 1.0 0.00 0.09 0.00 79 1011.8
20260504214546 45 267 0.0 1.0 0.00 0.14 0.09 77 1011.8
20260504213054 46 267 0.0 1.0 0.00 0.14 0.09 77 1011.8
20260504211541 46 267 0.0 1.0 0.00 0.14 0.09 76 1011.8
20260504210041 47 267 0.0 1.0 0.00 0.14 0.09 75 1011.8
20260504204545 47 266 0.0 1.0 0.00 0.28 0.09 76 1011.7
20260504203044 47 267 0.0 0.0 0.00 0.28 0.09 76 1011.7
20260504201601 48 266 0.0 0.0 0.00 0.28 0.09 76 1011.7
20260504200038 48 267 0.0 0.0 0.00 0.28 0.09 73 1011.7
20260504194640 50 267 0.0 0.0 0.00 0.33 0.09 70 1011.5
20260504193048 51 267 0.0 0.0 0.00 0.33 0.09 68 1011.6
20260504191543 52 266 0.0 0.0 0.00 0.33 0.09 65 1011.4
20260504190147 53 267 0.0 1.0 0.00 0.33 0.09 62 1011.4
20260504184600 54 266 0.0 2.0 0.00 0.33 0.09 59 1011.4
20260504183155 55 233 0.0 4.0 0.00 0.33 0.09 58 1011.3
20260504181556 56 254 0.0 4.0 0.00 0.33 0.09 58 1011.2
20260504180154 56 251 0.0 5.0 0.00 0.33 0.09 56 1011.1
20260504174619 57 211 0.0 7.0 0.00 0.33 0.09 52 1011.0
20260504173042 57 287 1.0 6.0 0.00 0.33 0.09 47 1011.0
20260504171540 58 242 1.0 9.0 0.00 0.33 0.09 43 1011.1
20260504170141 58 305 3.0 10.0 0.00 0.33 0.09 40 1011.2
20260504150117 62 298 1.0 10.0 0.00 0.33 0.09 39 1011.1
20260504090118 54 249 3.0 10.0 0.00 0.33 0.08 86 1009.9
20260504081641 52 307 2.0 10.0 0.00 0.33 0.08 89 1009.6
20260504050154 55 226 4.0 9.0 0.00 0.33 0.08 90 1006.5
20260504044602 55 231 3.0 8.0 0.00 0.33 0.08 89 1006.3
20260504043042 55 231 4.0 8.0 0.00 0.33 0.08 89 1006.3
20260504041516 55 215 3.0 8.0 0.00 0.33 0.08 89 1006.3
20260504040117 55 230 3.0 8.0 0.00 0.33 0.08 89 1006.2
20260504034618 55 232 6.0 11.0 0.00 0.33 0.08 90 1006.2
20260504033016 55 229 2.0 10.0 0.00 0.33 0.08 90 1006.3
20260504031601 56 223 4.0 9.0 0.00 0.33 0.08 90 1006.3
20260504030051 56 226 3.0 7.0 0.00 0.33 0.08 90 1006.3
20260504024538 56 220 5.0 10.0 0.00 0.33 0.08 90 1006.4
20260504023138 56 265 5.0 13.0 0.00 0.33 0.08 89 1006.4
20260504021549 56 241 4.0 13.0 0.00 0.33 0.08 90 1006.3
20260504020138 56 229 4.0 12.0 0.00 0.33 0.08 91 1006.2
20260504014542 56 212 3.0 11.0 0.00 0.33 0.08 92 1006.2
20260504013137 56 221 2.0 8.0 0.00 0.33 0.08 92 1006.2
20260504011550 56 212 2.0 5.0 0.00 0.33 0.08 92 1006.2
20260504010037 55 222 2.0 5.0 0.00 0.33 0.08 92 1006.2
20260504004532 55 221 2.0 5.0 0.01 0.33 0.08 92 1006.2
20260504003134 55 210 1.0 4.0 0.01 0.33 0.08 92 1006.2
20260504001607 55 246 0.0 3.0 0.01 0.33 0.08 92 1006.0
20260504000041 55 252 0.0 2.0 0.01 0.33 0.08 92 1006.1
20260503234646 55 250 0.0 0.0 0.00 0.32 0.07 91 1006.0
20260503233102 55 250 0.0 0.0 0.04 0.32 0.07 91 1006.1
20260503231552 55 249 0.0 2.0 0.06 0.32 0.07 91 1006.2